Torna al catalogo

STARLINK-36715

AttivoComunicazioniSSO
NORAD 67716·PAYLOAD·🇺🇸 United States

Lanciato Feb 7, 2026 da Vandenberg Space Force Base

Loading…

Prossimi Passaggi (prossime 24 ore)

TLE

AggiornatoSource: CelesTrak SupGP

Epoca: Sep 14, 2026, 22:28 UTC

1 67716C 26025Z   26257.93659722 -.00035535  00000+0 -11028-2 0  2570
2 67716  97.2857   7.8523 0001132 108.9312  72.7893 15.33465359    14

Traccia STARLINK-36715 in tempo reale con AllMySat

Download on the App Store